Location: St. Louis
(38.6270°N, 90.1994°W)
Time: 13:29:07
(UTC-05:00)

deb Kosmos-468 - Visible Passes

Search period start: 13 August 2022 00:00
Search period end: 23 August 2022 00:00
Orbit: 584 x 588 km, 74.0° (Epoch: 12 August)

Date Brightness Start Highest point End Pass type
(mag) Time Alt. Az. Time Alt. Az. Time Alt. Az.
13 Aug ? 01:00:02 10° N 01:00:47 14° N 01:00:47 14° N visible
14 Aug ? 01:06:42 10° N 01:07:18 14° N 01:07:18 14° N visible
15 Aug ? 01:13:31 10° NNW 01:13:51 12° NNW 01:13:51 12° NNW visible
16 Aug ? 23:50:18 10° NNE 23:50:35 11° NNE 23:50:35 11° NNE visible
17 Aug ? 23:56:39 10° N 23:57:11 13° N 23:57:11 13° N visible
19 Aug ? 00:03:14 10° N 00:03:49 13° N 00:03:49 13° N visible
20 Aug ? 00:09:58 10° NNW 00:10:27 13° NNW 00:10:27 13° NNW visible
21 Aug ? 00:16:52 10° NNW 00:17:07 11° NNW 00:17:07 11° NNW visible
21 Aug ? 22:46:50 10° NNE 22:47:21 12° NNE 22:47:21 12° NNE visible
22 Aug ? 22:53:04 10° N 22:54:02 15° NNE 22:54:02 15° NNE visible
